Year,Month,Day,Hour,Minute,Value (Times are PST for temperature in C)
2019,02,19,00,00,-3.00
2019,02,19,00,01,-3.10
2019,02,19,00,02,-3.20
2019,02,19,00,03,-3.20
2019,02,19,00,04,-3.20
2019,02,19,00,05,-3.30
2019,02,19,00,06,-3.40
2019,02,19,00,07,-3.50
2019,02,19,00,08,-3.50
2019,02,19,00,09,-3.60
2019,02,19,00,10,-3.60
2019,02,19,00,11,-3.70
2019,02,19,00,12,-3.70
2019,02,19,00,13,-3.80
2019,02,19,00,14,-3.90
2019,02,19,00,15,-3.90
2019,02,19,00,16,-4.00
2019,02,19,00,17,-4.10
2019,02,19,00,18,-4.10
2019,02,19,00,19,-4.20
2019,02,19,00,20,-4.30
2019,02,19,00,21,-4.40
2019,02,19,00,22,-4.50
2019,02,19,00,23,-4.50
2019,02,19,00,24,-4.60
2019,02,19,00,25,-4.70
2019,02,19,00,26,-4.80
2019,02,19,00,27,-4.80
2019,02,19,00,28,-4.90
2019,02,19,00,29,-4.90
2019,02,19,00,30,-5.00
2019,02,19,00,31,-5.20
2019,02,19,00,32,-5.30
2019,02,19,00,33,-5.30
2019,02,19,00,34,-5.40
2019,02,19,00,35,-5.30
2019,02,19,00,36,-5.30
2019,02,19,00,37,-5.20
2019,02,19,00,38,-5.20
2019,02,19,00,39,-5.20
2019,02,19,00,40,-5.20
2019,02,19,00,41,-5.20
2019,02,19,00,42,-5.20
2019,02,19,00,43,-5.20
2019,02,19,00,44,-5.30
2019,02,19,00,45,-5.30
2019,02,19,00,46,-5.30
2019,02,19,00,47,-5.30
2019,02,19,00,48,-5.20
2019,02,19,00,49,-5.20
2019,02,19,00,50,-5.20
2019,02,19,00,51,-5.30
2019,02,19,00,52,-5.30
2019,02,19,00,53,-5.30
2019,02,19,00,54,-5.30
2019,02,19,00,55,-5.40
2019,02,19,00,56,-5.40
2019,02,19,00,57,-5.40
2019,02,19,00,58,-5.40
2019,02,19,00,59,-5.40
2019,02,19,01,00,-5.40
2019,02,19,01,01,-5.30
2019,02,19,01,02,-5.30
2019,02,19,01,03,-5.30
2019,02,19,01,04,-5.20
2019,02,19,01,05,-5.20
2019,02,19,01,06,-5.20
2019,02,19,01,07,-5.10
2019,02,19,01,08,-5.00
2019,02,19,01,09,-5.00
2019,02,19,01,10,-4.90
2019,02,19,01,11,-4.90
2019,02,19,01,12,-4.90
2019,02,19,01,13,-5.00
2019,02,19,01,14,-5.00
2019,02,19,01,15,-5.00
2019,02,19,01,16,-5.10
2019,02,19,01,17,-5.10
2019,02,19,01,18,-5.20
2019,02,19,01,19,-5.20
2019,02,19,01,20,-5.20
2019,02,19,01,21,-5.20
2019,02,19,01,22,-5.20
2019,02,19,01,23,-5.30
2019,02,19,01,24,-5.30
2019,02,19,01,25,-5.30
2019,02,19,01,26,-5.30
2019,02,19,01,27,-5.30
2019,02,19,01,28,-5.30
2019,02,19,01,29,-5.30
2019,02,19,01,30,-5.30
2019,02,19,01,31,-5.20
2019,02,19,01,32,-5.20
2019,02,19,01,33,-5.10
2019,02,19,01,34,-5.00
2019,02,19,01,35,-4.80
2019,02,19,01,36,-4.70
2019,02,19,01,37,-4.60
2019,02,19,01,38,-4.60
2019,02,19,01,39,-4.50
2019,02,19,01,40,-4.50
2019,02,19,01,41,-4.40
2019,02,19,01,42,-4.40
2019,02,19,01,43,-4.30
2019,02,19,01,44,-4.30
2019,02,19,01,45,-4.30
2019,02,19,01,46,-4.20
2019,02,19,01,47,-4.20
2019,02,19,01,48,-4.10
2019,02,19,01,49,-4.10
2019,02,19,01,50,-4.10
2019,02,19,01,51,-4.10
2019,02,19,01,52,-4.10
2019,02,19,01,53,-4.00
2019,02,19,01,54,-4.00
2019,02,19,01,55,-4.00
2019,02,19,01,56,-3.90
2019,02,19,01,57,-3.90
2019,02,19,01,58,-3.90
2019,02,19,01,59,-3.90
2019,02,19,02,00,-3.90
2019,02,19,02,01,-3.90
2019,02,19,02,02,-3.90
2019,02,19,02,03,-3.90
2019,02,19,02,04,-3.90
2019,02,19,02,05,-3.80
2019,02,19,02,06,-3.80
2019,02,19,02,07,-3.80
2019,02,19,02,08,-3.80
2019,02,19,02,09,-3.80
2019,02,19,02,10,-3.70
2019,02,19,02,11,-3.70
2019,02,19,02,12,-3.70
2019,02,19,02,13,-3.70
2019,02,19,02,14,-3.70
2019,02,19,02,15,-3.70
2019,02,19,02,16,-3.70
2019,02,19,02,17,-3.60
2019,02,19,02,18,-3.60
2019,02,19,02,19,-3.60
2019,02,19,02,20,-3.60
2019,02,19,02,21,-3.60
2019,02,19,02,22,-3.60
2019,02,19,02,23,-3.60
2019,02,19,02,24,-3.60
2019,02,19,02,25,-3.60
2019,02,19,02,26,-3.60
2019,02,19,02,27,-3.60
2019,02,19,02,28,-3.60
2019,02,19,02,29,-3.60
2019,02,19,02,30,-3.60
2019,02,19,02,31,-3.60
2019,02,19,02,32,-3.60
2019,02,19,02,33,-3.60
2019,02,19,02,34,-3.60
2019,02,19,02,35,-3.60
2019,02,19,02,36,-3.60
2019,02,19,02,37,-3.60
2019,02,19,02,38,-3.60
2019,02,19,02,39,-3.60
2019,02,19,02,40,-3.60
2019,02,19,02,41,-3.60
2019,02,19,02,42,-3.50
2019,02,19,02,43,-3.50
2019,02,19,02,44,-3.50
2019,02,19,02,45,-3.50
2019,02,19,02,46,-3.40
2019,02,19,02,47,-3.40
2019,02,19,02,48,-3.40
2019,02,19,02,49,-3.40
2019,02,19,02,50,-3.40
2019,02,19,02,51,-3.40
2019,02,19,02,52,-3.30
2019,02,19,02,53,-3.30
2019,02,19,02,54,-3.30
2019,02,19,02,55,-3.20
2019,02,19,02,56,-3.20
2019,02,19,02,57,-3.20
2019,02,19,02,58,-3.10
2019,02,19,02,59,-3.10
2019,02,19,03,00,-3.10
2019,02,19,03,01,-3.10
2019,02,19,03,02,-3.00
2019,02,19,03,03,-3.00
2019,02,19,03,04,-3.00
2019,02,19,03,05,-3.00
2019,02,19,03,06,-3.00
2019,02,19,03,07,-3.00
2019,02,19,03,08,-3.00
2019,02,19,03,09,-2.90
2019,02,19,03,10,-2.90
2019,02,19,03,11,-2.90
2019,02,19,03,12,-2.90
2019,02,19,03,13,-2.80
2019,02,19,03,14,-2.90
2019,02,19,03,15,-2.90
2019,02,19,03,16,-2.90
2019,02,19,03,17,-3.00
2019,02,19,03,18,-3.00
2019,02,19,03,19,-3.00
2019,02,19,03,20,-3.00
2019,02,19,03,21,-3.10
2019,02,19,03,22,-3.10
2019,02,19,03,23,-3.10
2019,02,19,03,24,-3.10
2019,02,19,03,25,-3.20
2019,02,19,03,26,-3.20
2019,02,19,03,27,-3.20
2019,02,19,03,28,-3.20
2019,02,19,03,29,-3.20
2019,02,19,03,30,-3.20
2019,02,19,03,31,-3.20
2019,02,19,03,32,-3.30
2019,02,19,03,33,-3.30
2019,02,19,03,34,-3.30
2019,02,19,03,35,-3.30
2019,02,19,03,36,-3.30
2019,02,19,03,37,-3.30
2019,02,19,03,38,-3.30
2019,02,19,03,39,-3.30
2019,02,19,03,40,-3.30
2019,02,19,03,41,-3.20
2019,02,19,03,42,-3.20
2019,02,19,03,43,-3.20
2019,02,19,03,44,-3.20
2019,02,19,03,45,-3.10
2019,02,19,03,46,-3.10
2019,02,19,03,47,-3.10
2019,02,19,03,48,-3.10
2019,02,19,03,49,-3.00
2019,02,19,03,50,-3.00
2019,02,19,03,51,-3.00
2019,02,19,03,52,-3.00
2019,02,19,03,53,-3.00
2019,02,19,03,54,-2.90
2019,02,19,03,55,-2.90
2019,02,19,03,56,-2.90
2019,02,19,03,57,-2.80
2019,02,19,03,58,-2.80
2019,02,19,03,59,-2.80
2019,02,19,04,00,-2.80
2019,02,19,04,01,-2.70
2019,02,19,04,02,-2.70
2019,02,19,04,03,-2.70
2019,02,19,04,04,-2.70
2019,02,19,04,05,-2.70
2019,02,19,04,06,-2.70
2019,02,19,04,07,-2.60
2019,02,19,04,08,-2.60
2019,02,19,04,09,-2.60
2019,02,19,04,10,-2.60
2019,02,19,04,11,-2.50
2019,02,19,04,12,-2.50
2019,02,19,04,13,-2.50
2019,02,19,04,14,-2.50
2019,02,19,04,15,-2.50
2019,02,19,04,16,-2.50
2019,02,19,04,17,-2.40
2019,02,19,04,18,-2.40
2019,02,19,04,19,-2.40
2019,02,19,04,20,-2.40
2019,02,19,04,21,-2.40
2019,02,19,04,22,-2.40
2019,02,19,04,23,-2.40
2019,02,19,04,24,-2.30
2019,02,19,04,25,-2.30
2019,02,19,04,26,-2.30
2019,02,19,04,27,-2.30
2019,02,19,04,28,-2.40
2019,02,19,04,29,-2.30
2019,02,19,04,30,-2.40
2019,02,19,04,31,-2.40
2019,02,19,04,32,-2.40
2019,02,19,04,33,-2.40
2019,02,19,04,34,-2.40
2019,02,19,04,35,-2.40
2019,02,19,04,36,-2.40
2019,02,19,04,37,-2.40
2019,02,19,04,38,-2.40
2019,02,19,04,39,-2.40
2019,02,19,04,40,-2.40
2019,02,19,04,41,-2.50
2019,02,19,04,42,-2.50
2019,02,19,04,43,-2.50
2019,02,19,04,44,-2.50
2019,02,19,04,45,-2.60
2019,02,19,04,46,-2.60
2019,02,19,04,47,-2.60
2019,02,19,04,48,-2.60
2019,02,19,04,49,-2.70
2019,02,19,04,50,-2.70
2019,02,19,04,51,-2.80
2019,02,19,04,52,-2.80
2019,02,19,04,53,-2.80
2019,02,19,04,54,-2.90
2019,02,19,04,55,-2.90
2019,02,19,04,56,-3.00
2019,02,19,04,57,-3.00
2019,02,19,04,58,-3.00
2019,02,19,04,59,-3.10
2019,02,19,05,00,-3.10
2019,02,19,05,01,-3.10
2019,02,19,05,02,-3.20
2019,02,19,05,03,-3.20
2019,02,19,05,04,-3.30
2019,02,19,05,05,-3.30
2019,02,19,05,06,-3.40
2019,02,19,05,07,-3.40
2019,02,19,05,08,-3.50
2019,02,19,05,09,-3.50
2019,02,19,05,10,-3.60
2019,02,19,05,11,-3.60
2019,02,19,05,12,-3.70
2019,02,19,05,13,-3.80
2019,02,19,05,14,-3.80
2019,02,19,05,15,-3.80
2019,02,19,05,16,-3.90
2019,02,19,05,17,-3.90
2019,02,19,05,18,-3.90
2019,02,19,05,19,-4.00
2019,02,19,05,20,-4.00
2019,02,19,05,21,-4.00
2019,02,19,05,22,-4.00
2019,02,19,05,23,-4.00
2019,02,19,05,24,-4.00
2019,02,19,05,25,-4.10
2019,02,19,05,26,-4.10
2019,02,19,05,27,-4.10
2019,02,19,05,28,-4.10
2019,02,19,05,29,-4.10
2019,02,19,05,30,-4.10
2019,02,19,05,31,-4.10
2019,02,19,05,32,-4.10
2019,02,19,05,33,-4.10
2019,02,19,05,34,-4.00
2019,02,19,05,35,-4.00
2019,02,19,05,36,-4.00
2019,02,19,05,37,-4.00
2019,02,19,05,38,-4.00
2019,02,19,05,39,-4.00
2019,02,19,05,40,-4.10
2019,02,19,05,41,-4.10
2019,02,19,05,42,-4.20
2019,02,19,05,43,-4.20
2019,02,19,05,44,-4.30
2019,02,19,05,45,-4.30
2019,02,19,05,46,-4.40
2019,02,19,05,47,-4.40
2019,02,19,05,48,-4.50
2019,02,19,05,49,-4.50
2019,02,19,05,50,-4.60
2019,02,19,05,51,-4.60
2019,02,19,05,52,-4.60
2019,02,19,05,53,-4.60
2019,02,19,05,54,-4.60
2019,02,19,05,55,-4.60
2019,02,19,05,56,-4.60
2019,02,19,05,57,-4.60
2019,02,19,05,58,-4.60
2019,02,19,05,59,-4.70
2019,02,19,06,00,-4.70
2019,02,19,06,01,-4.70
2019,02,19,06,02,-4.70
2019,02,19,06,03,-4.70
2019,02,19,06,04,-4.70
2019,02,19,06,05,-4.70
2019,02,19,06,06,-4.70
2019,02,19,06,07,-4.80
2019,02,19,06,08,-4.80
2019,02,19,06,09,-4.70
2019,02,19,06,10,-4.80
2019,02,19,06,11,-4.80
2019,02,19,06,12,-4.80
2019,02,19,06,13,-4.80
2019,02,19,06,14,-4.80
2019,02,19,06,15,-4.70
2019,02,19,06,16,-4.70
2019,02,19,06,17,-4.70
2019,02,19,06,18,-4.70
2019,02,19,06,19,-4.70
2019,02,19,06,20,-4.60
2019,02,19,06,21,-4.60
2019,02,19,06,22,-4.60
2019,02,19,06,23,-4.60
2019,02,19,06,24,-4.60
2019,02,19,06,25,-4.50
2019,02,19,06,26,-4.50
2019,02,19,06,27,-4.50
2019,02,19,06,28,-4.50
2019,02,19,06,29,-4.50
2019,02,19,06,30,-4.40
2019,02,19,06,31,-4.40
2019,02,19,06,32,-4.40
2019,02,19,06,33,-4.40
2019,02,19,06,34,-4.40
2019,02,19,06,35,-4.30
2019,02,19,06,36,-4.30
2019,02,19,06,37,-4.20
2019,02,19,06,38,-4.20
2019,02,19,06,39,-4.10
2019,02,19,06,40,-4.10
2019,02,19,06,41,-4.10
2019,02,19,06,42,-4.10
2019,02,19,06,43,-4.10
2019,02,19,06,44,-4.10
2019,02,19,06,45,-4.10
2019,02,19,06,46,-4.10
2019,02,19,06,47,-4.10
2019,02,19,06,48,-4.10
2019,02,19,06,49,-4.10
2019,02,19,06,50,-4.10
2019,02,19,06,51,-4.00
2019,02,19,06,52,-4.00
2019,02,19,06,53,-4.00
2019,02,19,06,54,-4.00
2019,02,19,06,55,-3.90
2019,02,19,06,56,-3.90
2019,02,19,06,57,-3.90
2019,02,19,06,58,-3.90
2019,02,19,06,59,-3.90
2019,02,19,07,00,-3.80
2019,02,19,07,01,-3.80
2019,02,19,07,02,-3.80
2019,02,19,07,03,-3.70
2019,02,19,07,04,-3.70
2019,02,19,07,05,-3.70
2019,02,19,07,06,-3.60
2019,02,19,07,07,-3.60
2019,02,19,07,08,-3.60
2019,02,19,07,09,-3.60
2019,02,19,07,10,-3.60
2019,02,19,07,11,-3.60
2019,02,19,07,12,-3.60
2019,02,19,07,13,-3.60
2019,02,19,07,14,-3.60
2019,02,19,07,15,-3.70
2019,02,19,07,16,-3.70
2019,02,19,07,17,-3.70
2019,02,19,07,18,-3.70
2019,02,19,07,19,-3.70
2019,02,19,07,20,-3.70
2019,02,19,07,21,-3.70
2019,02,19,07,22,-3.80
2019,02,19,07,23,-3.80
2019,02,19,07,24,-3.90
2019,02,19,07,25,-3.90
2019,02,19,07,26,-3.90
2019,02,19,07,27,-4.00
2019,02,19,07,28,-4.00
2019,02,19,07,29,-4.10
2019,02,19,07,30,-4.10
2019,02,19,07,31,-4.10
2019,02,19,07,32,-4.10
2019,02,19,07,33,-4.20
2019,02,19,07,34,-4.20
2019,02,19,07,35,-4.20
2019,02,19,07,36,-4.20
2019,02,19,07,37,-4.30
2019,02,19,07,38,-4.30
2019,02,19,07,39,-4.30
2019,02,19,07,40,-4.40
2019,02,19,07,41,-4.40
2019,02,19,07,42,-4.40
2019,02,19,07,43,-4.50
2019,02,19,07,44,-4.50
2019,02,19,07,45,-4.50
2019,02,19,07,46,-4.50
2019,02,19,07,47,-4.60
2019,02,19,07,48,-4.60
2019,02,19,07,49,-4.60
2019,02,19,07,50,-4.60
2019,02,19,07,51,-4.70
2019,02,19,07,52,-4.70
2019,02,19,07,53,-4.80
2019,02,19,07,54,-4.80
2019,02,19,07,55,-4.90
2019,02,19,07,56,-4.90
2019,02,19,07,57,-4.90
2019,02,19,07,58,-5.00
2019,02,19,07,59,-5.00
2019,02,19,08,00,-5.00
2019,02,19,08,01,-5.00
2019,02,19,08,02,-5.10
2019,02,19,08,03,-5.10
2019,02,19,08,04,-5.20
2019,02,19,08,05,-5.20
2019,02,19,08,06,-5.20
2019,02,19,08,07,-5.20
2019,02,19,08,08,-5.20
2019,02,19,08,09,-5.20
2019,02,19,08,10,-5.20
2019,02,19,08,11,-5.30
2019,02,19,08,12,-5.40
2019,02,19,08,13,-5.40
2019,02,19,08,14,-5.40
2019,02,19,08,15,-5.50
2019,02,19,08,16,-5.50
2019,02,19,08,17,-5.50
2019,02,19,08,18,-5.50
2019,02,19,08,19,-5.60
2019,02,19,08,20,-5.60
2019,02,19,08,21,-5.60
2019,02,19,08,22,-5.60
2019,02,19,08,23,-5.50
2019,02,19,08,24,-5.50
2019,02,19,08,25,-5.50
2019,02,19,08,26,-5.50
2019,02,19,08,27,-5.50
2019,02,19,08,28,-5.50
2019,02,19,08,29,-5.40
2019,02,19,08,30,-5.40
2019,02,19,08,31,-5.40
2019,02,19,08,32,-5.30
2019,02,19,08,33,-5.30
2019,02,19,08,34,-5.30
2019,02,19,08,35,-5.30
2019,02,19,08,36,-5.20
2019,02,19,08,37,-5.20
2019,02,19,08,38,-5.20
2019,02,19,08,39,-5.20
2019,02,19,08,40,-5.20
2019,02,19,08,41,-5.20
2019,02,19,08,42,-5.20
2019,02,19,08,43,-5.20
2019,02,19,08,44,-5.10
2019,02,19,08,45,-5.10
2019,02,19,08,46,-5.10
2019,02,19,08,47,-5.10
2019,02,19,08,48,-5.10
2019,02,19,08,49,-5.10
2019,02,19,08,50,-5.10
2019,02,19,08,51,-5.10
2019,02,19,08,52,-5.10
2019,02,19,08,53,-5.10
2019,02,19,08,54,-5.10
2019,02,19,08,55,-5.10
2019,02,19,08,56,-5.10
2019,02,19,08,57,-5.10
2019,02,19,08,58,-5.20
2019,02,19,08,59,-5.20
2019,02,19,09,00,-5.30
2019,02,19,09,01,-5.40
2019,02,19,09,02,-5.40
2019,02,19,09,03,-5.50
2019,02,19,09,04,-5.50
2019,02,19,09,05,-5.50
2019,02,19,09,06,-5.60
2019,02,19,09,07,-5.60
2019,02,19,09,08,-5.70
2019,02,19,09,09,-5.70
2019,02,19,09,10,-5.70
2019,02,19,09,11,-5.70
2019,02,19,09,12,-5.70
2019,02,19,09,13,-5.70
2019,02,19,09,14,-5.80
2019,02,19,09,15,-5.80
2019,02,19,09,16,-5.80
2019,02,19,09,17,-5.80
2019,02,19,09,18,-5.80
2019,02,19,09,19,-5.80
2019,02,19,09,20,-5.80
2019,02,19,09,21,-5.80
2019,02,19,09,22,-5.80
2019,02,19,09,23,-5.80
2019,02,19,09,24,-5.80
2019,02,19,09,25,-5.80
2019,02,19,09,26,-5.80
2019,02,19,09,27,-5.80
2019,02,19,09,28,-5.80
2019,02,19,09,29,-5.80
2019,02,19,09,30,-5.80
2019,02,19,09,31,-5.80
2019,02,19,09,32,-5.80
2019,02,19,09,33,-5.80
2019,02,19,09,34,-5.80
2019,02,19,09,35,-5.70
2019,02,19,09,36,-5.70
2019,02,19,09,37,-5.70
2019,02,19,09,38,-5.70
2019,02,19,09,39,-5.70
2019,02,19,09,40,-5.70
2019,02,19,09,41,-5.70
2019,02,19,09,42,-5.70
2019,02,19,09,43,-5.70
2019,02,19,09,44,-5.70
2019,02,19,09,45,-5.70
2019,02,19,09,46,-5.70
2019,02,19,09,47,-5.80
2019,02,19,09,48,-5.80
2019,02,19,09,49,-5.90
2019,02,19,09,50,-5.90
2019,02,19,09,51,-5.90
2019,02,19,09,52,-6.00
2019,02,19,09,53,-6.00
2019,02,19,09,54,-6.00
2019,02,19,09,55,-6.00
2019,02,19,09,56,-6.00
2019,02,19,09,57,-6.10
2019,02,19,09,58,-6.10
2019,02,19,09,59,-6.10
2019,02,19,10,00,-6.20
2019,02,19,10,01,-6.20
2019,02,19,10,02,-6.20
2019,02,19,10,03,-6.20
2019,02,19,10,04,-6.20
2019,02,19,10,05,-6.20
2019,02,19,10,06,-6.20
2019,02,19,10,07,-6.20
2019,02,19,10,08,-6.20
2019,02,19,10,09,-6.20
2019,02,19,10,10,-6.20
2019,02,19,10,11,-6.30
2019,02,19,10,12,-6.30
2019,02,19,10,13,-6.30
2019,02,19,10,14,-6.40
2019,02,19,10,15,-6.40
2019,02,19,10,16,-6.40
2019,02,19,10,17,-6.40
2019,02,19,10,18,-6.40
2019,02,19,10,19,-6.40
2019,02,19,10,20,-6.40
2019,02,19,10,21,-6.40
2019,02,19,10,22,-6.40
2019,02,19,10,23,-6.40
2019,02,19,10,24,-6.40
2019,02,19,10,25,-6.40
2019,02,19,10,26,-6.30
2019,02,19,10,27,-6.30
2019,02,19,10,28,-6.40
2019,02,19,10,29,-6.40
2019,02,19,10,30,-6.40
2019,02,19,10,31,-6.40
2019,02,19,10,32,-6.40
2019,02,19,10,33,-6.40
2019,02,19,10,34,-6.40
2019,02,19,10,35,-6.40
2019,02,19,10,36,-6.30
2019,02,19,10,37,-6.30
2019,02,19,10,38,-6.30
2019,02,19,10,39,-6.30
2019,02,19,10,40,-6.20
2019,02,19,10,41,-6.20
2019,02,19,10,42,-6.20
2019,02,19,10,43,-6.20
2019,02,19,10,44,-6.20
2019,02,19,10,45,-6.20
2019,02,19,10,46,-6.10
2019,02,19,10,47,-6.10
2019,02,19,10,48,-6.10
2019,02,19,10,49,-6.10
2019,02,19,10,50,-6.10
2019,02,19,10,51,-6.20
2019,02,19,10,52,-6.30
2019,02,19,10,53,-6.30
2019,02,19,10,54,-6.40
2019,02,19,10,55,-6.50
2019,02,19,10,56,-6.60
2019,02,19,10,57,-6.60
2019,02,19,10,58,-6.70
2019,02,19,10,59,-6.70
2019,02,19,11,00,-6.70
2019,02,19,11,01,-6.70
2019,02,19,11,02,-6.70
2019,02,19,11,03,-6.70
2019,02,19,11,04,-6.70
2019,02,19,11,05,-6.70
2019,02,19,11,06,-6.70
2019,02,19,11,07,-6.70
2019,02,19,11,08,-6.70
2019,02,19,11,09,-6.70
2019,02,19,11,10,-6.60
2019,02,19,11,11,-6.60
2019,02,19,11,12,-6.60
2019,02,19,11,13,-6.60
2019,02,19,11,14,-6.60
2019,02,19,11,15,-6.50
2019,02,19,11,16,-6.50
2019,02,19,11,17,-6.40
2019,02,19,11,18,-6.40
2019,02,19,11,19,-6.40
2019,02,19,11,20,-6.30
2019,02,19,11,21,-6.30
2019,02,19,11,22,-6.20
2019,02,19,11,23,-6.20
2019,02,19,11,24,-6.10
2019,02,19,11,25,-6.00
2019,02,19,11,26,-5.90
2019,02,19,11,27,-5.90
2019,02,19,11,28,-5.80
2019,02,19,11,29,-5.70
2019,02,19,11,30,-5.60
2019,02,19,11,31,-5.50
2019,02,19,11,32,-5.40
2019,02,19,11,33,-5.30
2019,02,19,11,34,-5.20
2019,02,19,11,35,-5.10
2019,02,19,11,36,-5.00
2019,02,19,11,37,-4.90
2019,02,19,11,38,-4.90
2019,02,19,11,39,-4.80
2019,02,19,11,40,-4.70
2019,02,19,11,41,-4.60
2019,02,19,11,42,-4.60
2019,02,19,11,43,-4.50
2019,02,19,11,44,-4.40
2019,02,19,11,45,-4.30
2019,02,19,11,46,-4.20
2019,02,19,11,47,-4.00
2019,02,19,11,48,-3.80
2019,02,19,11,49,-3.60
2019,02,19,11,50,-3.50
2019,02,19,11,51,-3.30
2019,02,19,11,52,-3.10
2019,02,19,11,53,-3.00
2019,02,19,11,54,-2.80
2019,02,19,11,55,-2.70
2019,02,19,11,56,-2.50
2019,02,19,11,57,-2.40
2019,02,19,11,58,-2.20
2019,02,19,11,59,-2.00
2019,02,19,12,00,-1.80
2019,02,19,12,01,-1.50
2019,02,19,12,02,-1.30
2019,02,19,12,03,-1.10
2019,02,19,12,04,-0.90
2019,02,19,12,05,-0.80
2019,02,19,12,06,-0.70
2019,02,19,12,07,-0.50
2019,02,19,12,08,-0.40
2019,02,19,12,09,-0.30
2019,02,19,12,10,-0.10
2019,02,19,12,11,-11.20
2019,02,19,12,12,-17.70
2019,02,19,12,13,-17.70
2019,02,19,12,14,-17.60
2019,02,19,12,15,-17.50
2019,02,19,12,16,-17.40
2019,02,19,12,17,-17.30
2019,02,19,12,18,-17.30
2019,02,19,12,19,-17.20
2019,02,19,12,20,-17.10
2019,02,19,12,21,-17.10
2019,02,19,12,22,-17.10
2019,02,19,12,23,-17.10
2019,02,19,12,24,-17.10
2019,02,19,12,25,-17.10
2019,02,19,12,26,-16.70
2019,02,19,12,27,-16.70
2019,02,19,12,28,-16.70
2019,02,19,12,29,-16.60
2019,02,19,12,30,-16.60
2019,02,19,12,31,-16.50
2019,02,19,12,32,-16.50
2019,02,19,12,33,-16.40
2019,02,19,12,34,-16.40
2019,02,19,12,35,-16.40
2019,02,19,12,36,-16.30
2019,02,19,12,37,-16.30
2019,02,19,12,38,-16.30
2019,02,19,12,39,-16.30
2019,02,19,12,40,-16.40
2019,02,19,12,41,-16.40
2019,02,19,12,42,-16.40
2019,02,19,12,43,-16.50
2019,02,19,12,44,-16.50
2019,02,19,12,45,-16.50
2019,02,19,12,46,-16.60
2019,02,19,12,47,-16.60
2019,02,19,12,48,-16.70
2019,02,19,12,49,-16.70
2019,02,19,12,50,-16.70
2019,02,19,12,51,-16.70
2019,02,19,12,52,-16.70
2019,02,19,12,53,-16.70
2019,02,19,12,54,-16.70
2019,02,19,12,55,-16.70
2019,02,19,12,56,-16.70
2019,02,19,12,57,-16.70
2019,02,19,12,58,-16.70
2019,02,19,12,59,-16.70
2019,02,19,13,00,-16.60
2019,02,19,13,01,-16.60
2019,02,19,13,02,-16.60
2019,02,19,13,03,-16.60
2019,02,19,13,04,-16.60
2019,02,19,13,05,-16.60
2019,02,19,13,06,-16.60
2019,02,19,13,07,-16.60
2019,02,19,13,08,-16.60
2019,02,19,13,09,-16.60
2019,02,19,13,10,-16.50
2019,02,19,13,11,-16.50
2019,02,19,13,12,-16.40
2019,02,19,13,13,-16.30
2019,02,19,13,14,-16.20
2019,02,19,13,15,-16.10
2019,02,19,13,16,-16.00
2019,02,19,13,17,-15.90
2019,02,19,13,18,-15.80
2019,02,19,13,19,-15.70
2019,02,19,13,20,-15.50
2019,02,19,13,21,-15.40
2019,02,19,13,22,-15.30
2019,02,19,13,23,-15.20
2019,02,19,13,24,-15.20
2019,02,19,13,25,-15.10
2019,02,19,13,26,-15.00
2019,02,19,13,27,-14.90
2019,02,19,13,28,-14.90
2019,02,19,13,29,-14.90
2019,02,19,13,30,-14.80
2019,02,19,13,31,-14.80
2019,02,19,13,32,-14.80
2019,02,19,13,33,-14.80
2019,02,19,13,34,-14.80
2019,02,19,13,35,-14.80
2019,02,19,13,36,-14.80
2019,02,19,13,37,-14.80
2019,02,19,13,38,-14.80
2019,02,19,13,39,-14.80
2019,02,19,13,40,-14.80
2019,02,19,13,41,-14.80
2019,02,19,13,42,-14.80
2019,02,19,13,43,-14.80
2019,02,19,13,44,-14.80
2019,02,19,13,45,-14.70
2019,02,19,13,46,-14.70
2019,02,19,13,47,-14.70
2019,02,19,13,48,-14.70
2019,02,19,13,49,-14.70
2019,02,19,13,50,-14.70
2019,02,19,13,51,-14.60
2019,02,19,13,52,-14.60
2019,02,19,13,53,-14.60
2019,02,19,13,54,-14.60
2019,02,19,13,55,-14.50
2019,02,19,13,56,-14.50
2019,02,19,13,57,-14.40
2019,02,19,13,58,-14.40
2019,02,19,13,59,-14.40
2019,02,19,14,00,-14.30
2019,02,19,14,01,-14.30
2019,02,19,14,02,-14.20
2019,02,19,14,03,-14.20
2019,02,19,14,04,-14.10
2019,02,19,14,05,-14.10
2019,02,19,14,06,-14.00
2019,02,19,14,07,-13.90
2019,02,19,14,08,-13.90
2019,02,19,14,09,-13.80
2019,02,19,14,10,-13.70
2019,02,19,14,11,-13.70
2019,02,19,14,12,-13.60
2019,02,19,14,13,-13.60
2019,02,19,14,14,-13.50
2019,02,19,14,15,-13.40
2019,02,19,14,16,-13.40
2019,02,19,14,17,-13.40
2019,02,19,14,18,-13.40
2019,02,19,14,19,-13.40
2019,02,19,14,20,-13.40
2019,02,19,14,21,-13.40
2019,02,19,14,22,-13.40
2019,02,19,14,23,-13.30
2019,02,19,14,24,-13.30
2019,02,19,14,25,-13.30
2019,02,19,14,26,-13.30
2019,02,19,14,27,-13.30
2019,02,19,14,28,-13.30
2019,02,19,14,29,-13.30
2019,02,19,14,30,-13.30
2019,02,19,14,31,-13.20
2019,02,19,14,32,-13.20
2019,02,19,14,33,-13.20
2019,02,19,14,34,-13.20
2019,02,19,14,35,-13.20
2019,02,19,14,36,-13.20
2019,02,19,14,37,-13.20
2019,02,19,14,38,-13.20
2019,02,19,14,39,-13.20
2019,02,19,14,40,-13.20
2019,02,19,14,41,-13.20
2019,02,19,14,42,-13.20
2019,02,19,14,43,-13.20
2019,02,19,14,44,-13.20
2019,02,19,14,45,-13.20
2019,02,19,14,46,-13.20
2019,02,19,14,47,-13.10
2019,02,19,14,48,-13.10
2019,02,19,14,49,-13.10
2019,02,19,14,50,-13.10
2019,02,19,14,51,-13.10
2019,02,19,14,52,-13.10
2019,02,19,14,53,-13.10
2019,02,19,14,54,-13.00
2019,02,19,14,55,-13.00
2019,02,19,14,56,-13.00
2019,02,19,14,57,-13.00
2019,02,19,14,58,-13.00
2019,02,19,14,59,-13.00
2019,02,19,15,00,-13.00
2019,02,19,15,01,-13.00
2019,02,19,15,02,-13.00
2019,02,19,15,03,-13.00
2019,02,19,15,04,-12.90
2019,02,19,15,05,-12.90
2019,02,19,15,06,-12.90
2019,02,19,15,07,-12.80
2019,02,19,15,08,-12.80
2019,02,19,15,09,-12.70
2019,02,19,15,10,-12.70
2019,02,19,15,11,-12.70
2019,02,19,15,12,-12.70
2019,02,19,15,13,-12.80
2019,02,19,15,14,-12.80
2019,02,19,15,15,-12.90
2019,02,19,15,16,-13.00
2019,02,19,15,17,-13.00
2019,02,19,15,18,-13.10
2019,02,19,15,19,-13.20
2019,02,19,15,20,-13.20
2019,02,19,15,21,-13.30
2019,02,19,15,22,-13.30
2019,02,19,15,23,-13.40
2019,02,19,15,24,-13.40
2019,02,19,15,25,-13.50
2019,02,19,15,26,-13.50
2019,02,19,15,27,-13.50
2019,02,19,15,28,-13.60
2019,02,19,15,29,-13.60
2019,02,19,15,30,-13.60
2019,02,19,15,31,-13.60
2019,02,19,15,32,-13.60
2019,02,19,15,33,-13.60
2019,02,19,15,34,-13.60
2019,02,19,15,35,-13.60
2019,02,19,15,36,-13.60
2019,02,19,15,37,-13.60
2019,02,19,15,38,-13.60
2019,02,19,15,39,-13.70
2019,02,19,15,40,-13.70
2019,02,19,15,41,-13.70
2019,02,19,15,42,-13.80
2019,02,19,15,43,-13.80
2019,02,19,15,44,-13.80
2019,02,19,15,45,-13.80
2019,02,19,15,46,-13.90
2019,02,19,15,47,-13.90
2019,02,19,15,48,-13.90
2019,02,19,15,49,-13.90
2019,02,19,15,50,-13.90
2019,02,19,15,51,-13.80
2019,02,19,15,52,-13.80
2019,02,19,15,53,-13.80
2019,02,19,15,54,-13.80
2019,02,19,15,55,-13.80
2019,02,19,15,56,-13.80
2019,02,19,15,57,-13.70
2019,02,19,15,58,-13.70
2019,02,19,15,59,-13.70
2019,02,19,16,00,-13.70
2019,02,19,16,01,-13.70
2019,02,19,16,02,-13.60
2019,02,19,16,03,-13.60
2019,02,19,16,04,-13.60
2019,02,19,16,05,-13.60
2019,02,19,16,06,-13.60
2019,02,19,16,07,-13.60
2019,02,19,16,08,-13.60
2019,02,19,16,09,-13.50
2019,02,19,16,10,-13.50
2019,02,19,16,11,-13.50
2019,02,19,16,12,-13.50
2019,02,19,16,13,-13.40
2019,02,19,16,14,-13.40
2019,02,19,16,15,-13.40
2019,02,19,16,16,-13.40
2019,02,19,16,17,-13.40
2019,02,19,16,18,-13.40
2019,02,19,16,19,-13.40
2019,02,19,16,20,-13.40
2019,02,19,16,21,-13.40
2019,02,19,16,22,-13.40
2019,02,19,16,23,-13.40
2019,02,19,16,24,-13.40
2019,02,19,16,25,-13.40
2019,02,19,16,26,-13.40
2019,02,19,16,27,-13.40
2019,02,19,16,28,-13.40
2019,02,19,16,29,-13.40
2019,02,19,16,30,-13.40
2019,02,19,16,31,-13.40
2019,02,19,16,32,-13.40
2019,02,19,16,33,-13.40
2019,02,19,16,34,-13.40
2019,02,19,16,35,-13.40
2019,02,19,16,36,-13.40
2019,02,19,16,37,-13.40
2019,02,19,16,38,-13.40
2019,02,19,16,39,-13.40
2019,02,19,16,40,-13.40
2019,02,19,16,41,-13.40
2019,02,19,16,42,-13.40
2019,02,19,16,43,-13.40
2019,02,19,16,44,-13.40
2019,02,19,16,45,-13.40
2019,02,19,16,46,-13.40
2019,02,19,16,47,-13.40
2019,02,19,16,48,-13.40
2019,02,19,16,49,-13.40
2019,02,19,16,50,-13.40
2019,02,19,16,51,-13.40
2019,02,19,16,52,-13.40
2019,02,19,16,53,-13.40
2019,02,19,16,54,-13.40
2019,02,19,16,55,-13.40
2019,02,19,16,56,-13.30
2019,02,19,16,57,-13.30
2019,02,19,16,58,-13.30
2019,02,19,16,59,-13.30
2019,02,19,17,00,-13.30
2019,02,19,17,01,-13.30
2019,02,19,17,02,-13.30
2019,02,19,17,03,-13.30
2019,02,19,17,04,-13.30
2019,02,19,17,05,-13.30
2019,02,19,17,06,-13.30